Year,Month,Day,Hour,Minute,Value (Times are PST for temperature in C)
2006,09,14,00,00,11.60
2006,09,14,00,01,11.70
2006,09,14,00,02,11.70
2006,09,14,00,03,11.70
2006,09,14,00,04,11.70
2006,09,14,00,05,11.70
2006,09,14,00,06,11.80
2006,09,14,00,07,11.80
2006,09,14,00,08,11.80
2006,09,14,00,09,11.80
2006,09,14,00,10,11.80
2006,09,14,00,11,11.80
2006,09,14,00,12,11.80
2006,09,14,00,13,11.80
2006,09,14,00,14,11.80
2006,09,14,00,15,11.90
2006,09,14,00,16,11.90
2006,09,14,00,17,11.90
2006,09,14,00,18,11.90
2006,09,14,00,19,11.90
2006,09,14,00,20,11.90
2006,09,14,00,21,11.90
2006,09,14,00,22,11.90
2006,09,14,00,23,11.90
2006,09,14,00,24,11.90
2006,09,14,00,25,11.90
2006,09,14,00,26,11.90
2006,09,14,00,27,11.90
2006,09,14,00,28,11.90
2006,09,14,00,29,11.90
2006,09,14,00,30,12.00
2006,09,14,00,31,12.00
2006,09,14,00,32,12.00
2006,09,14,00,33,12.00
2006,09,14,00,34,12.00
2006,09,14,00,35,12.00
2006,09,14,00,36,12.00
2006,09,14,00,37,12.00
2006,09,14,00,38,12.00
2006,09,14,00,39,12.00
2006,09,14,00,40,12.00
2006,09,14,00,41,12.00
2006,09,14,00,42,11.90
2006,09,14,00,43,11.90
2006,09,14,00,44,11.90
2006,09,14,00,45,11.90
2006,09,14,00,46,11.90
2006,09,14,00,47,11.90
2006,09,14,00,48,11.90
2006,09,14,00,49,11.90
2006,09,14,00,50,11.90
2006,09,14,00,51,11.90
2006,09,14,00,52,11.90
2006,09,14,00,53,11.90
2006,09,14,00,54,11.90
2006,09,14,00,55,11.90
2006,09,14,00,56,11.90
2006,09,14,00,57,11.90
2006,09,14,00,58,11.90
2006,09,14,00,59,11.90
2006,09,14,01,00,11.90
2006,09,14,01,01,11.90
2006,09,14,01,02,11.90
2006,09,14,01,03,11.90
2006,09,14,01,04,11.90
2006,09,14,01,05,11.90
2006,09,14,01,06,11.90
2006,09,14,01,07,11.80
2006,09,14,01,08,11.80
2006,09,14,01,09,11.80
2006,09,14,01,10,11.80
2006,09,14,01,11,11.80
2006,09,14,01,12,11.80
2006,09,14,01,13,11.80
2006,09,14,01,14,11.80
2006,09,14,01,15,11.80
2006,09,14,01,16,11.80
2006,09,14,01,17,11.80
2006,09,14,01,18,11.80
2006,09,14,01,19,11.80
2006,09,14,01,20,11.80
2006,09,14,01,21,11.80
2006,09,14,01,22,11.80
2006,09,14,01,23,11.80
2006,09,14,01,24,11.70
2006,09,14,01,25,11.70
2006,09,14,01,26,11.70
2006,09,14,01,27,11.70
2006,09,14,01,28,11.70
2006,09,14,01,29,11.70
2006,09,14,01,30,11.70
2006,09,14,01,31,11.60
2006,09,14,01,32,11.60
2006,09,14,01,33,11.60
2006,09,14,01,34,11.60
2006,09,14,01,35,11.60
2006,09,14,01,36,11.50
2006,09,14,01,37,11.40
2006,09,14,01,38,11.40
2006,09,14,01,39,11.40
2006,09,14,01,40,11.40
2006,09,14,01,41,11.40
2006,09,14,01,42,11.30
2006,09,14,01,43,11.30
2006,09,14,01,44,11.30
2006,09,14,01,45,11.20
2006,09,14,01,46,11.20
2006,09,14,01,47,11.20
2006,09,14,01,48,11.20
2006,09,14,01,49,11.10
2006,09,14,01,50,11.10
2006,09,14,01,51,11.10
2006,09,14,01,52,11.10
2006,09,14,01,53,11.10
2006,09,14,01,54,11.10
2006,09,14,01,55,11.10
2006,09,14,01,56,11.10
2006,09,14,01,57,11.10
2006,09,14,01,58,11.00
2006,09,14,01,59,10.90
2006,09,14,02,00,10.90
2006,09,14,02,01,10.90
2006,09,14,02,02,10.90
2006,09,14,02,03,10.90
2006,09,14,02,04,10.90
2006,09,14,02,05,10.90
2006,09,14,02,06,10.90
2006,09,14,02,07,10.90
2006,09,14,02,08,10.90
2006,09,14,02,09,10.80
2006,09,14,02,10,10.80
2006,09,14,02,11,10.80
2006,09,14,02,12,10.80
2006,09,14,02,13,10.70
2006,09,14,02,14,10.70
2006,09,14,02,15,10.70
2006,09,14,02,16,10.70
2006,09,14,02,17,10.70
2006,09,14,02,18,10.70
2006,09,14,02,19,10.70
2006,09,14,02,20,10.70
2006,09,14,02,21,10.60
2006,09,14,02,22,10.60
2006,09,14,02,23,10.60
2006,09,14,02,24,10.60
2006,09,14,02,25,10.60
2006,09,14,02,26,10.60
2006,09,14,02,27,10.60
2006,09,14,02,28,10.60
2006,09,14,02,29,10.60
2006,09,14,02,30,10.60
2006,09,14,02,31,10.60
2006,09,14,02,32,10.60
2006,09,14,02,33,10.50
2006,09,14,02,34,10.40
2006,09,14,02,35,10.40
2006,09,14,02,36,10.40
2006,09,14,02,37,10.40
2006,09,14,02,38,10.40
2006,09,14,02,39,10.40
2006,09,14,02,40,10.40
2006,09,14,02,41,10.40
2006,09,14,02,42,10.40
2006,09,14,02,43,10.40
2006,09,14,02,44,10.40
2006,09,14,02,45,10.40
2006,09,14,02,46,10.40
2006,09,14,02,47,10.40
2006,09,14,02,48,10.40
2006,09,14,02,49,10.40
2006,09,14,02,50,10.40
2006,09,14,02,51,10.40
2006,09,14,02,52,10.30
2006,09,14,02,53,10.30
2006,09,14,02,54,10.30
2006,09,14,02,55,10.30
2006,09,14,02,56,10.30
2006,09,14,02,57,10.30
2006,09,14,02,58,10.30
2006,09,14,02,59,10.30
2006,09,14,03,00,10.30
2006,09,14,03,01,10.30
2006,09,14,03,02,10.30
2006,09,14,03,03,10.40
2006,09,14,03,04,10.40
2006,09,14,03,05,10.40
2006,09,14,03,06,10.40
2006,09,14,03,07,10.40
2006,09,14,03,08,10.40
2006,09,14,03,09,10.40
2006,09,14,03,10,10.30
2006,09,14,03,11,10.30
2006,09,14,03,12,10.30
2006,09,14,03,13,10.30
2006,09,14,03,14,10.30
2006,09,14,03,15,10.30
2006,09,14,03,16,10.30
2006,09,14,03,17,10.30
2006,09,14,03,18,10.30
2006,09,14,03,19,10.30
2006,09,14,03,20,10.30
2006,09,14,03,21,10.30
2006,09,14,03,22,10.20
2006,09,14,03,23,10.20
2006,09,14,03,24,10.20
2006,09,14,03,25,10.20
2006,09,14,03,26,10.10
2006,09,14,03,27,10.10
2006,09,14,03,28,10.10
2006,09,14,03,29,10.10
2006,09,14,03,30,10.10
2006,09,14,03,31,10.10
2006,09,14,03,32,10.10
2006,09,14,03,33,10.10
2006,09,14,03,34,10.10
2006,09,14,03,35,10.10
2006,09,14,03,36,10.10
2006,09,14,03,37,10.10
2006,09,14,03,38,10.10
2006,09,14,03,39,10.00
2006,09,14,03,40,9.90
2006,09,14,03,41,9.90
2006,09,14,03,42,9.90
2006,09,14,03,43,9.90
2006,09,14,03,44,9.90
2006,09,14,03,45,9.90
2006,09,14,03,46,9.90
2006,09,14,03,47,9.90
2006,09,14,03,48,9.90
2006,09,14,03,49,9.90
2006,09,14,03,50,9.90
2006,09,14,03,51,9.90
2006,09,14,03,52,9.90
2006,09,14,03,53,9.90
2006,09,14,03,54,9.90
2006,09,14,03,55,9.80
2006,09,14,03,56,9.80
2006,09,14,03,57,9.80
2006,09,14,03,58,9.80
2006,09,14,03,59,9.80
2006,09,14,04,00,9.80
2006,09,14,04,01,9.70
2006,09,14,04,02,9.70
2006,09,14,04,03,9.70
2006,09,14,04,04,9.70
2006,09,14,04,05,9.70
2006,09,14,04,06,9.70
2006,09,14,04,07,9.70
2006,09,14,04,08,9.70
2006,09,14,04,09,9.70
2006,09,14,04,10,9.60
2006,09,14,04,11,9.60
2006,09,14,04,12,9.60
2006,09,14,04,13,9.60
2006,09,14,04,14,9.60
2006,09,14,04,15,9.50
2006,09,14,04,16,9.50
2006,09,14,04,17,9.50
2006,09,14,04,18,9.50
2006,09,14,04,19,9.40
2006,09,14,04,20,9.40
2006,09,14,04,21,9.30
2006,09,14,04,22,9.30
2006,09,14,04,23,9.30
2006,09,14,04,24,9.20
2006,09,14,04,25,9.20
2006,09,14,04,26,9.20
2006,09,14,04,27,9.20
2006,09,14,04,28,9.20
2006,09,14,04,29,9.20
2006,09,14,04,30,9.10
2006,09,14,04,31,9.10
2006,09,14,04,32,9.10
2006,09,14,04,33,9.10
2006,09,14,04,34,9.00
2006,09,14,04,35,9.00
2006,09,14,04,36,9.00
2006,09,14,04,37,9.00
2006,09,14,04,38,8.90
2006,09,14,04,39,8.90
2006,09,14,04,40,8.90
2006,09,14,04,41,8.80
2006,09,14,04,42,8.80
2006,09,14,04,43,8.80
2006,09,14,04,44,8.70
2006,09,14,04,45,8.70
2006,09,14,04,46,8.70
2006,09,14,04,47,8.70
2006,09,14,04,48,8.70
2006,09,14,04,49,8.60
2006,09,14,04,50,8.60
2006,09,14,04,51,8.60
2006,09,14,04,52,8.60
2006,09,14,04,53,8.50
2006,09,14,04,54,8.50
2006,09,14,04,55,8.50
2006,09,14,04,56,8.50
2006,09,14,04,57,8.40
2006,09,14,04,58,8.40
2006,09,14,04,59,8.40
2006,09,14,05,00,8.40
2006,09,14,05,01,8.40
2006,09,14,05,02,8.30
2006,09,14,05,03,8.30
2006,09,14,05,04,8.30
2006,09,14,05,05,8.30
2006,09,14,05,06,8.30
2006,09,14,05,07,8.30
2006,09,14,05,08,8.20
2006,09,14,05,09,8.20
2006,09,14,05,10,8.20
2006,09,14,05,11,8.20
2006,09,14,05,12,8.20
2006,09,14,05,13,8.20
2006,09,14,05,14,8.20
2006,09,14,05,15,8.10
2006,09,14,05,16,8.10
2006,09,14,05,17,8.10
2006,09,14,05,18,8.10
2006,09,14,05,19,8.00
2006,09,14,05,20,8.00
2006,09,14,05,21,8.00
2006,09,14,05,22,8.00
2006,09,14,05,23,7.90
2006,09,14,05,24,7.90
2006,09,14,05,25,7.90
2006,09,14,05,26,7.90
2006,09,14,05,27,7.90
2006,09,14,05,28,8.00
2006,09,14,05,29,8.00
2006,09,14,05,30,8.00
2006,09,14,05,31,8.00
2006,09,14,05,32,8.00
2006,09,14,05,33,8.10
2006,09,14,05,34,8.10
2006,09,14,05,35,8.10
2006,09,14,05,36,8.10
2006,09,14,05,37,8.20
2006,09,14,05,38,8.20
2006,09,14,05,39,8.20
2006,09,14,05,40,8.20
2006,09,14,05,41,8.20
2006,09,14,05,42,8.10
2006,09,14,05,43,8.10
2006,09,14,05,44,8.10
2006,09,14,05,45,8.10
2006,09,14,05,46,8.10
2006,09,14,05,47,8.10
2006,09,14,05,48,8.10
2006,09,14,05,49,8.00
2006,09,14,05,50,8.00
2006,09,14,05,51,8.00
2006,09,14,05,52,7.90
2006,09,14,05,53,7.90
2006,09,14,05,54,7.80
2006,09,14,05,55,7.80
2006,09,14,05,56,7.80
2006,09,14,05,57,7.80
2006,09,14,05,58,7.80
2006,09,14,05,59,7.80
2006,09,14,06,00,7.80
2006,09,14,06,01,7.80
2006,09,14,06,02,7.70
2006,09,14,06,03,7.70
2006,09,14,06,04,7.70
2006,09,14,06,05,7.70
2006,09,14,06,06,7.70
2006,09,14,06,07,7.70
2006,09,14,06,08,7.70
2006,09,14,06,09,7.70
2006,09,14,06,10,7.80
2006,09,14,06,11,7.70
2006,09,14,06,12,7.70
2006,09,14,06,13,7.70
2006,09,14,06,14,7.70
2006,09,14,06,15,7.70
2006,09,14,06,16,7.70
2006,09,14,06,17,7.60
2006,09,14,06,18,7.60
2006,09,14,06,19,7.60
2006,09,14,06,20,7.60
2006,09,14,06,21,7.50
2006,09,14,06,22,7.50
2006,09,14,06,23,7.50
2006,09,14,06,24,7.50
2006,09,14,06,25,7.40
2006,09,14,06,26,7.40
2006,09,14,06,27,7.40
2006,09,14,06,28,7.40
2006,09,14,06,29,7.40
2006,09,14,06,30,7.30
2006,09,14,06,31,7.30
2006,09,14,06,32,7.30
2006,09,14,06,33,7.30
2006,09,14,06,34,7.30
2006,09,14,06,35,7.30
2006,09,14,06,36,7.30
2006,09,14,06,37,7.20
2006,09,14,06,38,7.20
2006,09,14,06,39,7.20
2006,09,14,06,40,7.20
2006,09,14,06,41,7.10
2006,09,14,06,42,7.10
2006,09,14,06,43,7.10
2006,09,14,06,44,7.10
2006,09,14,06,45,7.10
2006,09,14,06,46,7.10
2006,09,14,06,47,7.00
2006,09,14,06,48,7.00
2006,09,14,06,49,7.00
2006,09,14,06,50,7.00
2006,09,14,06,51,7.00
2006,09,14,06,52,7.00
2006,09,14,06,53,6.90
2006,09,14,06,54,6.90
2006,09,14,06,55,6.90
2006,09,14,06,56,6.90
2006,09,14,06,57,6.90
2006,09,14,06,58,6.90
2006,09,14,06,59,6.90
2006,09,14,07,00,6.90
2006,09,14,07,01,6.90
2006,09,14,07,02,6.90
2006,09,14,07,03,6.90
2006,09,14,07,04,6.90
2006,09,14,07,05,6.90
2006,09,14,07,06,6.90
2006,09,14,07,07,6.90
2006,09,14,07,08,6.90
2006,09,14,07,09,6.90
2006,09,14,07,10,6.90
2006,09,14,07,11,6.90
2006,09,14,07,12,6.90
2006,09,14,07,13,6.90
2006,09,14,07,14,6.90
2006,09,14,07,15,6.90
2006,09,14,07,16,6.90
2006,09,14,07,17,6.90
2006,09,14,07,18,6.90
2006,09,14,07,19,6.90
2006,09,14,07,20,6.90
2006,09,14,07,21,6.90
2006,09,14,07,22,6.90
2006,09,14,07,23,6.90
2006,09,14,07,24,6.90
2006,09,14,07,25,6.90
2006,09,14,07,26,6.90
2006,09,14,07,27,6.90
2006,09,14,07,28,6.90
2006,09,14,07,29,6.90
2006,09,14,07,30,6.90
2006,09,14,07,31,7.00
2006,09,14,07,32,7.00
2006,09,14,07,33,7.00
2006,09,14,07,34,7.00
2006,09,14,07,35,7.00
2006,09,14,07,36,7.00
2006,09,14,07,37,7.00
2006,09,14,07,38,7.00
2006,09,14,07,39,7.00
2006,09,14,07,40,7.00
2006,09,14,07,41,7.00
2006,09,14,07,42,7.00
2006,09,14,07,43,7.00
2006,09,14,07,44,7.00
2006,09,14,07,45,7.00
2006,09,14,07,46,7.00
2006,09,14,07,47,7.00
2006,09,14,07,48,7.00
2006,09,14,07,49,7.10
2006,09,14,07,50,7.10
2006,09,14,07,51,7.10
2006,09,14,07,52,7.20
2006,09,14,07,53,7.20
2006,09,14,07,54,7.20
2006,09,14,07,55,7.30
2006,09,14,07,56,7.30
2006,09,14,07,57,7.40
2006,09,14,07,58,7.40
2006,09,14,07,59,7.50
2006,09,14,08,00,7.50
2006,09,14,08,01,7.60
2006,09,14,08,02,7.60
2006,09,14,08,03,7.60
2006,09,14,08,04,7.60
2006,09,14,08,05,7.70
2006,09,14,08,06,7.70
2006,09,14,08,07,7.70
2006,09,14,08,08,7.80
2006,09,14,08,09,7.80
2006,09,14,08,10,7.80
2006,09,14,08,11,7.80
2006,09,14,08,12,7.90
2006,09,14,08,13,7.90
2006,09,14,08,14,8.00
2006,09,14,08,15,8.10
2006,09,14,08,16,8.20
2006,09,14,08,17,8.30
2006,09,14,08,18,8.40
2006,09,14,08,19,8.50
2006,09,14,08,20,8.70
2006,09,14,08,21,8.80
2006,09,14,08,22,8.90
2006,09,14,08,23,9.00
2006,09,14,08,24,9.10
2006,09,14,08,25,9.30
2006,09,14,08,26,9.40
2006,09,14,08,27,9.50
2006,09,14,08,28,9.60
2006,09,14,08,29,9.70
2006,09,14,08,30,9.80
2006,09,14,08,31,9.90
2006,09,14,08,32,10.00
2006,09,14,08,33,10.10
2006,09,14,08,34,10.20
2006,09,14,08,35,10.40
2006,09,14,08,36,10.50
2006,09,14,08,37,10.60
2006,09,14,08,38,10.70
2006,09,14,08,39,10.70
2006,09,14,08,40,10.80
2006,09,14,08,41,10.90
2006,09,14,08,42,11.00
2006,09,14,08,43,11.10
2006,09,14,08,44,11.10
2006,09,14,08,45,11.20
2006,09,14,08,46,11.30
2006,09,14,08,47,11.30
2006,09,14,08,48,11.40
2006,09,14,08,49,11.40
2006,09,14,08,50,11.50
2006,09,14,08,51,11.60
2006,09,14,08,52,11.70
2006,09,14,08,53,11.80
2006,09,14,08,54,11.80
2006,09,14,08,55,11.80
2006,09,14,08,56,11.90
2006,09,14,08,57,11.90
2006,09,14,08,58,12.00
2006,09,14,08,59,12.00
2006,09,14,09,00,12.10
2006,09,14,09,01,12.20
2006,09,14,09,02,12.30
2006,09,14,09,03,12.40
2006,09,14,09,04,12.50
2006,09,14,09,05,12.50
2006,09,14,09,06,12.60
2006,09,14,09,07,12.60
2006,09,14,09,08,12.70
2006,09,14,09,09,12.70
2006,09,14,09,10,12.70
2006,09,14,09,11,12.80
2006,09,14,09,12,12.80
2006,09,14,09,13,12.80
2006,09,14,09,14,12.80
2006,09,14,09,15,12.80
2006,09,14,09,16,12.80
2006,09,14,09,17,12.80
2006,09,14,09,18,12.80
2006,09,14,09,19,12.80
2006,09,14,09,20,12.80
2006,09,14,09,21,12.80
2006,09,14,09,22,12.80
2006,09,14,09,23,12.80
2006,09,14,09,24,12.80
2006,09,14,09,25,12.80
2006,09,14,09,26,12.80
2006,09,14,09,27,12.80
2006,09,14,09,28,12.90
2006,09,14,09,29,12.90
2006,09,14,09,30,13.00
2006,09,14,09,31,13.10
2006,09,14,09,32,13.10
2006,09,14,09,33,13.10
2006,09,14,09,34,13.10
2006,09,14,09,35,13.20
2006,09,14,09,36,13.20
2006,09,14,09,37,13.20
2006,09,14,09,38,13.20
2006,09,14,09,39,13.30
2006,09,14,09,40,13.30
2006,09,14,09,41,13.40
2006,09,14,09,42,13.40
2006,09,14,09,43,13.50
2006,09,14,09,44,13.60
2006,09,14,09,45,13.60
2006,09,14,09,46,13.60
2006,09,14,09,47,13.60
2006,09,14,09,48,13.60
2006,09,14,09,49,13.70
2006,09,14,09,50,13.70
2006,09,14,09,51,13.60
2006,09,14,09,52,13.60
2006,09,14,09,53,13.60
2006,09,14,09,54,13.60
2006,09,14,09,55,13.60
2006,09,14,09,56,13.70
2006,09,14,09,57,13.70
2006,09,14,09,58,13.70
2006,09,14,09,59,13.70
2006,09,14,10,00,13.80
2006,09,14,10,01,13.80
2006,09,14,10,02,13.90
2006,09,14,10,03,14.00
2006,09,14,10,04,14.10
2006,09,14,10,05,14.20
2006,09,14,10,06,14.20
2006,09,14,10,07,14.20
2006,09,14,10,08,14.20
2006,09,14,10,09,14.20
2006,09,14,10,10,14.20
2006,09,14,10,11,14.20
2006,09,14,10,12,14.10
2006,09,14,10,13,14.10
2006,09,14,10,14,14.00
2006,09,14,10,15,14.00
2006,09,14,10,16,14.00
2006,09,14,10,17,14.00
2006,09,14,10,18,14.00
2006,09,14,10,19,14.10
2006,09,14,10,20,14.10
2006,09,14,10,21,14.10
2006,09,14,10,22,14.10
2006,09,14,10,23,14.10
2006,09,14,10,24,14.10
2006,09,14,10,25,14.10
2006,09,14,10,26,14.10
2006,09,14,10,27,14.10
2006,09,14,10,28,14.10
2006,09,14,10,29,14.10
2006,09,14,10,30,14.20
2006,09,14,10,31,14.20
2006,09,14,10,32,14.20
2006,09,14,10,33,14.20
2006,09,14,10,34,14.20
2006,09,14,10,35,14.30
2006,09,14,10,36,14.30
2006,09,14,10,37,14.30
2006,09,14,10,38,14.30
2006,09,14,10,39,14.40
2006,09,14,10,40,14.40
2006,09,14,10,41,14.40
2006,09,14,10,42,14.40
2006,09,14,10,43,14.40
2006,09,14,10,44,14.40
2006,09,14,10,45,14.40
2006,09,14,10,46,14.40
2006,09,14,10,47,14.40
2006,09,14,10,48,14.30
2006,09,14,10,49,14.30
2006,09,14,10,50,14.30
2006,09,14,10,51,14.20
2006,09,14,10,52,14.10
2006,09,14,10,53,13.90
2006,09,14,10,54,13.80
2006,09,14,10,55,13.60
2006,09,14,10,56,13.30
2006,09,14,10,57,13.20
2006,09,14,10,58,13.20
2006,09,14,10,59,13.10
2006,09,14,11,00,13.00
2006,09,14,11,01,13.00
2006,09,14,11,02,12.90
2006,09,14,11,03,12.90
2006,09,14,11,04,12.90
2006,09,14,11,05,12.90
2006,09,14,11,06,12.90
2006,09,14,11,07,12.90
2006,09,14,11,08,12.90
2006,09,14,11,09,12.90
2006,09,14,11,10,13.00
2006,09,14,11,11,13.00
2006,09,14,11,12,13.00
2006,09,14,11,13,13.00
2006,09,14,11,14,12.90
2006,09,14,11,15,12.90
2006,09,14,11,16,12.90
2006,09,14,11,17,13.00
2006,09,14,11,18,13.00
2006,09,14,11,19,13.00
2006,09,14,11,20,13.00
2006,09,14,11,21,12.90
2006,09,14,11,22,12.90
2006,09,14,11,23,12.90
2006,09,14,11,24,12.80
2006,09,14,11,25,12.80
2006,09,14,11,26,12.90
2006,09,14,11,27,13.00
2006,09,14,11,28,13.00
2006,09,14,11,29,13.10
2006,09,14,11,30,13.20
2006,09,14,11,31,13.30
2006,09,14,11,32,13.30
2006,09,14,11,33,13.40
2006,09,14,11,34,13.40
2006,09,14,11,35,13.40
2006,09,14,11,36,13.40
2006,09,14,11,37,13.40
2006,09,14,11,38,13.30
2006,09,14,11,39,13.30
2006,09,14,11,40,13.20
2006,09,14,11,41,13.20
2006,09,14,11,42,13.20
2006,09,14,11,43,13.20
2006,09,14,11,44,13.20
2006,09,14,11,45,13.20
2006,09,14,11,46,13.20
2006,09,14,11,47,13.20
2006,09,14,11,48,13.20
2006,09,14,11,49,13.30
2006,09,14,11,50,13.30
2006,09,14,11,51,13.30
2006,09,14,11,52,13.40
2006,09,14,11,53,13.50
2006,09,14,11,54,13.60
2006,09,14,11,55,13.70
2006,09,14,11,56,13.70
2006,09,14,11,57,13.80
2006,09,14,11,58,13.80
2006,09,14,11,59,13.70
2006,09,14,12,00,13.80
2006,09,14,12,01,13.70
2006,09,14,12,02,13.70
2006,09,14,12,03,13.60
2006,09,14,12,04,13.50
2006,09,14,12,05,13.40
2006,09,14,12,06,13.40
2006,09,14,12,07,13.50
2006,09,14,12,08,13.50
2006,09,14,12,09,13.50
2006,09,14,12,10,13.50
2006,09,14,12,11,13.50
2006,09,14,12,12,13.40
2006,09,14,12,13,13.40
2006,09,14,12,14,13.50
2006,09,14,12,15,13.60
2006,09,14,12,16,13.50
2006,09,14,12,17,13.50
2006,09,14,12,18,13.50
2006,09,14,12,19,13.60
2006,09,14,12,20,13.70
2006,09,14,12,21,13.70
2006,09,14,12,22,13.70
2006,09,14,12,23,13.70
2006,09,14,12,24,13.60
2006,09,14,12,25,13.60
2006,09,14,12,26,13.60
2006,09,14,12,27,13.70
2006,09,14,12,28,13.70
2006,09,14,12,29,13.80
2006,09,14,12,30,13.80
2006,09,14,12,31,13.90
2006,09,14,12,32,14.00
2006,09,14,12,33,14.00
2006,09,14,12,34,13.90
2006,09,14,12,35,14.00
2006,09,14,12,36,14.00
2006,09,14,12,37,14.00
2006,09,14,12,38,14.10
2006,09,14,12,39,14.20
2006,09,14,12,40,14.20
2006,09,14,12,41,14.30
2006,09,14,12,42,14.40
2006,09,14,12,43,14.60
2006,09,14,12,44,14.80
2006,09,14,12,45,14.90
2006,09,14,12,46,15.10
2006,09,14,12,47,15.20
2006,09,14,12,48,15.00
2006,09,14,12,49,15.00
2006,09,14,12,50,15.00
2006,09,14,12,51,15.00
2006,09,14,12,52,15.10
2006,09,14,12,53,15.20
2006,09,14,12,54,15.30
2006,09,14,12,55,15.30
2006,09,14,12,56,15.40
2006,09,14,12,57,15.50
2006,09,14,12,58,15.60
2006,09,14,12,59,15.70
2006,09,14,13,00,15.70
2006,09,14,13,01,15.70
2006,09,14,13,02,15.70
2006,09,14,13,03,15.60
2006,09,14,13,04,15.70
2006,09,14,13,05,15.60
2006,09,14,13,06,15.40
2006,09,14,13,07,15.30
2006,09,14,13,08,15.20
2006,09,14,13,09,15.10
2006,09,14,13,10,15.10
2006,09,14,13,11,15.20
2006,09,14,13,12,15.30
2006,09,14,13,13,15.40
2006,09,14,13,14,15.50
2006,09,14,13,15,15.60
2006,09,14,13,16,15.70
2006,09,14,13,17,15.60
2006,09,14,13,18,15.50
2006,09,14,13,19,15.40
2006,09,14,13,20,15.30
2006,09,14,13,21,15.30
2006,09,14,13,22,15.30
2006,09,14,13,23,15.30
2006,09,14,13,24,15.30
2006,09,14,13,25,15.20
2006,09,14,13,26,15.10
2006,09,14,13,27,15.10
2006,09,14,13,28,15.00
2006,09,14,13,29,15.00
2006,09,14,13,30,15.10
2006,09,14,13,31,15.20
2006,09,14,13,32,15.30
2006,09,14,13,33,15.30
2006,09,14,13,34,15.40
2006,09,14,13,35,15.50
2006,09,14,13,36,15.40
2006,09,14,13,37,15.30
2006,09,14,13,38,15.20
2006,09,14,13,39,15.20
2006,09,14,13,40,15.20
2006,09,14,13,41,15.10
2006,09,14,13,42,15.00
2006,09,14,13,43,14.80
2006,09,14,13,44,14.60
2006,09,14,13,45,14.60
2006,09,14,13,46,14.70
2006,09,14,13,47,14.90
2006,09,14,13,48,15.00
2006,09,14,13,49,15.10
2006,09,14,13,50,15.20
2006,09,14,13,51,15.10
2006,09,14,13,52,15.00
2006,09,14,13,53,14.90
2006,09,14,13,54,14.90
2006,09,14,13,55,15.00
2006,09,14,13,56,15.10
2006,09,14,13,57,15.20
2006,09,14,13,58,15.20
2006,09,14,13,59,15.10
2006,09,14,14,00,15.10
2006,09,14,14,01,15.00
2006,09,14,14,02,14.90
2006,09,14,14,03,15.00
2006,09,14,14,04,15.10
2006,09,14,14,05,15.20
2006,09,14,14,06,15.20
2006,09,14,14,07,15.30
2006,09,14,14,08,15.40
2006,09,14,14,09,15.60
2006,09,14,14,10,15.70
2006,09,14,14,11,15.80
2006,09,14,14,12,15.90
2006,09,14,14,13,15.80
2006,09,14,14,14,15.90
2006,09,14,14,15,15.70
2006,09,14,14,16,15.50
2006,09,14,14,17,15.40
2006,09,14,14,18,15.30
2006,09,14,14,19,15.20
2006,09,14,14,20,15.30
2006,09,14,14,21,15.40
2006,09,14,14,22,15.50
2006,09,14,14,23,15.60
2006,09,14,14,24,15.70
2006,09,14,14,25,15.70
2006,09,14,14,26,15.80
2006,09,14,14,27,15.80
2006,09,14,14,28,15.70
2006,09,14,14,29,15.60
2006,09,14,14,30,15.60
2006,09,14,14,31,15.80
2006,09,14,14,32,15.80
2006,09,14,14,33,15.90
2006,09,14,14,34,16.00
2006,09,14,14,35,16.10
2006,09,14,14,36,16.30
2006,09,14,14,37,16.30
2006,09,14,14,38,16.30
2006,09,14,14,39,16.20
2006,09,14,14,40,16.10
2006,09,14,14,41,16.00
2006,09,14,14,42,15.80
2006,09,14,14,43,15.70
2006,09,14,14,44,15.60
2006,09,14,14,45,15.50
2006,09,14,14,46,15.50
2006,09,14,14,47,15.60
2006,09,14,14,48,15.70
2006,09,14,14,49,15.60
2006,09,14,14,50,15.50
2006,09,14,14,51,15.40
2006,09,14,14,52,15.60
2006,09,14,14,53,15.60
2006,09,14,14,54,15.60
2006,09,14,14,55,15.70
2006,09,14,14,56,15.80
2006,09,14,14,57,15.80
2006,09,14,14,58,15.80
2006,09,14,14,59,15.70
2006,09,14,15,00,15.60
2006,09,14,15,01,15.60
2006,09,14,15,02,15.60
2006,09,14,15,03,15.60
2006,09,14,15,04,15.60
2006,09,14,15,05,15.40
2006,09,14,15,06,15.30
2006,09,14,15,07,15.30
2006,09,14,15,08,15.10
2006,09,14,15,09,15.10
2006,09,14,15,10,15.00
2006,09,14,15,11,15.00
2006,09,14,15,12,15.00
2006,09,14,15,13,15.10
2006,09,14,15,14,15.10
2006,09,14,15,15,15.10
2006,09,14,15,16,15.10
2006,09,14,15,17,15.00
2006,09,14,15,18,15.00
2006,09,14,15,19,15.10
2006,09,14,15,20,15.00
2006,09,14,15,21,15.00
2006,09,14,15,22,15.00
2006,09,14,15,23,14.90
2006,09,14,15,24,14.80
2006,09,14,15,25,14.60
2006,09,14,15,26,14.50
2006,09,14,15,27,14.40
2006,09,14,15,28,14.20
2006,09,14,15,29,14.20
2006,09,14,15,30,14.20
2006,09,14,15,31,14.20
2006,09,14,15,32,14.20
2006,09,14,15,33,14.20
2006,09,14,15,34,14.20
2006,09,14,15,35,14.20
2006,09,14,15,36,14.20
2006,09,14,15,37,14.20
2006,09,14,15,38,14.20
2006,09,14,15,39,14.20
2006,09,14,15,40,14.20
2006,09,14,15,41,14.20
2006,09,14,15,42,14.20
2006,09,14,15,43,14.20
2006,09,14,15,44,14.30
2006,09,14,15,45,14.20
2006,09,14,15,46,14.00
2006,09,14,15,47,13.90
2006,09,14,15,48,13.90
2006,09,14,15,49,13.80
2006,09,14,15,50,13.80
2006,09,14,15,51,13.80
2006,09,14,15,52,13.70
2006,09,14,15,53,13.70
2006,09,14,15,54,13.70
2006,09,14,15,55,13.70
2006,09,14,15,56,13.70
2006,09,14,15,57,13.70
2006,09,14,15,58,13.70
2006,09,14,15,59,13.70
2006,09,14,16,00,13.70
2006,09,14,16,01,13.70
2006,09,14,16,02,13.70
2006,09,14,16,03,13.70
2006,09,14,16,04,13.70
2006,09,14,16,05,13.70
2006,09,14,16,06,13.80
2006,09,14,16,07,13.80
2006,09,14,16,08,13.90
2006,09,14,16,09,13.90
2006,09,14,16,10,13.90
2006,09,14,16,11,13.90
2006,09,14,16,12,13.90
2006,09,14,16,13,13.70
2006,09,14,16,14,13.70
2006,09,14,16,15,13.70
2006,09,14,16,16,13.70
2006,09,14,16,17,13.70
2006,09,14,16,18,13.70
2006,09,14,16,19,13.80
2006,09,14,16,20,13.80
2006,09,14,16,21,13.90
2006,09,14,16,22,13.90
2006,09,14,16,23,13.90
2006,09,14,16,24,13.90
2006,09,14,16,25,13.80
2006,09,14,16,26,13.80
2006,09,14,16,27,13.80
2006,09,14,16,28,13.70
2006,09,14,16,29,13.70
2006,09,14,16,30,13.70
2006,09,14,16,31,13.70
2006,09,14,16,32,13.70
2006,09,14,16,33,13.70
2006,09,14,16,34,13.70
2006,09,14,16,35,13.70
2006,09,14,16,36,13.70
2006,09,14,16,37,13.70
2006,09,14,16,38,13.70
2006,09,14,16,39,13.60
2006,09,14,16,40,13.60
2006,09,14,16,41,13.60
2006,09,14,16,42,13.60
2006,09,14,16,43,13.60
2006,09,14,16,44,13.60
2006,09,14,16,45,13.60
2006,09,14,16,46,13.60
2006,09,14,16,47,13.60
2006,09,14,16,48,13.60
2006,09,14,16,49,13.60
2006,09,14,16,50,13.60
2006,09,14,16,51,13.60
2006,09,14,16,52,13.70
2006,09,14,16,53,13.70
2006,09,14,16,54,13.70
2006,09,14,16,55,13.70
2006,09,14,16,56,13.70
2006,09,14,16,57,13.70
2006,09,14,16,58,13.70
2006,09,14,16,59,13.70
2006,09,14,17,00,13.70
2006,09,14,17,01,13.80
2006,09,14,17,02,13.80
2006,09,14,17,03,13.80
2006,09,14,17,04,13.80
2006,09,14,17,05,13.80
2006,09,14,17,06,13.80
2006,09,14,17,07,13.80
2006,09,14,17,08,13.80
2006,09,14,17,09,13.80
2006,09,14,17,10,13.80
2006,09,14,17,11,13.80
2006,09,14,17,12,13.90
2006,09,14,17,13,13.90
2006,09,14,17,14,14.00
2006,09,14,17,15,14.00
2006,09,14,17,16,14.00
2006,09,14,17,17,14.00
2006,09,14,17,18,14.10
2006,09,14,17,19,14.10
2006,09,14,17,20,14.10
2006,09,14,17,21,14.10
2006,09,14,17,22,14.10
2006,09,14,17,23,14.10
2006,09,14,17,24,14.10
2006,09,14,17,25,14.10
2006,09,14,17,26,14.10
2006,09,14,17,27,14.10
2006,09,14,17,28,14.00
2006,09,14,17,29,14.00
2006,09,14,17,30,14.00
2006,09,14,17,31,14.00
2006,09,14,17,32,13.90